Voltar ao catálogo

STARLINK-35197

AtivoComunicaçõesVLEO
NORAD 66193·PAYLOAD·🇺🇸 United States

Lançado Oct 26, 2025 de Cape Canaveral Space Force Station

Loading…

Próximas Passagens (próximas 24 horas)

TLE

AtualizadoSource: CelesTrak SupGP

Época: Sep 14, 2026, 23:00 UTC

1 66193C 25243S   26257.95881944  .00051175  00000+0  15119-2 0  2575
2 66193  53.1602  85.4079 0001301  79.2113 213.2687 15.34365709    18

Acompanhe STARLINK-35197 em tempo real com AllMySat

Download on the App Store